Regional Weather Roundup
Issued by NWS

Home | Current Version | Previous Version | Graphics & Text | Print | Product List | Glossary On
Versions: 1 2 3 4 5 6 7 8 9 10 11 12 13 14 15 16 17 18 19 20 21 22 23 24 25 26 27 28 29 30 31 32 33 34 35 36 37 38 39 40 41 42 43 44 45 46 47 48 49 50
000
ASUS43 KLMK 280410
RWRKY
KENTUCKY REGIONAL WEATHER ROUNDUP
NATIONAL WEATHER SERVICE LOUISVILLE KY
1200 AM EDT FRI APR 28 2017

NOTE "FAIR" INDICATES FEW OR NO CLOUDS BELOW 12,000 FEET
WITH NO SIGNIFICANT WEATHER AND/OR OBSTRUCTIONS TO VISIBILITY.

KYZ001>023-026-027-061>063-070>075-280500-
WESTERN AND SOUTH CENTRAL KENTUCKY

CITY           SKY/WX    TMP DP  RH WIND       PRES   REMARKS
PADUCAH        CLOUDY    52  49  89 SE3       29.87R
HENDERSON      CLEAR     48  47  96 CALM      29.90S
OWENSBORO      CLEAR     51  47  86 N3        29.89F
HOPKINSVILLE   PTCLDY    54  52  93 CALM      29.88S
BOWLING GREEN  CLEAR     52  51  97 CALM      29.90R
GLASGOW        CLEAR    N/A N/A N/A CALM      29.90R
$$

KYZ024-025-028>034-038-045-046-053-280500-
NORTH CENTRAL KENTUCKY

CITY           SKY/WX    TMP DP  RH WIND       PRES   REMARKS
LOUISVILLE/SDF MOCLDY    54  48  80 W5        29.90R
LOUISVILLE/LOU CLEAR     54  50  86 CALM      29.90R
FORT KNOX      PTCLDY    47  47  99 CALM      29.89R
$$

KYZ035>037-039>044-047>052-055>060-089>105-280500-
NORTHEAST KENTUCKY

CITY           SKY/WX    TMP DP  RH WIND       PRES   REMARKS
LEXINGTON      CLEAR     51  45  79 CALM      29.90R
COVINGTON      CLEAR     52  47  83 W3        29.88S
FRANKFORT      CLEAR     50  45  83 CALM      29.89R
$$

KYZ054-064>069-076>088-106>120-280500-
SOUTHEAST KENTUCKY

CITY           SKY/WX    TMP DP  RH WIND       PRES   REMARKS
JACKSON        CLEAR     60  51  72 CALM      29.91R
LONDON         CLEAR     56  52  86 CALM      29.91R
SOMERSET       CLEAR     54  52  94 CALM      29.92R
MIDDLESBORO    CLEAR     56  55  96 CALM      29.92R
MONTICELLO     PTCLDY    52  50  93 VRB5      29.92R
$$




USA.gov is the U.S. government's official web portal to all federal, state and local government web resources and services.